Wetterdaten: aktuell Mittwoch, 08.12.2021 05:35
Datum Zeit Temp. A. Feuchte A. Luftdruck Regen Wind Richtung Richtung Windben
08.12.2021 05:35 -5,4 C 80 % 1011,4 hPa 0,0 l/m 0,0 km/h N-NW 348 0,0 km/h
08.12.2021 05:30 -5,3 C 80 % 1011,4 hPa 0,0 l/m 0,0 km/h N-NW 348 0,0 km/h
08.12.2021 05:25 -5,1 C 79 % 1011,5 hPa 0,0 l/m 0,0 km/h N-NW 348 0,0 km/h
08.12.2021 05:20 -5,4 C 80 % 1011,5 hPa 0,0 l/m 0,0 km/h N-NW 348 0,0 km/h
08.12.2021 05:15 -5,4 C 80 % 1011,5 hPa 0,0 l/m 0,0 km/h N-NW 348 0,0 km/h
08.12.2021 05:14 -5,4 C 80 % 1011,5 hPa 0,0 l/m 0,0 km/h N-NW 348 0,0 km/h
08.12.2021 05:10 -5,6 C 81 % 1011,5 hPa 0,0 l/m 0,0 km/h N-NW 348 0,0 km/h
08.12.2021 05:05 -5,5 C 81 % 1011,6 hPa 0,0 l/m 0,0 km/h N-NW 348 0,0 km/h
08.12.2021 05:00 -5,3 C 80 % 1011,6 hPa 0,0 l/m 0,0 km/h N-NW 348 0,0 km/h
08.12.2021 04:59 -5,3 C 80 % 1011,6 hPa 0,0 l/m 0,0 km/h N-NW 348 0,0 km/h
08.12.2021 04:55 -5,4 C 81 % 1011,6 hPa 0,0 l/m 0,0 km/h N-NW 348 0,0 km/h
08.12.2021 04:50 -5,4 C 81 % 1011,7 hPa 0,0 l/m 0,0 km/h N-NW 348 0,0 km/h
08.12.2021 04:45 -5,4 C 81 % 1011,7 hPa 0,0 l/m 0,0 km/h N-NW 348 0,0 km/h
08.12.2021 04:44 -5,4 C 81 % 1011,7 hPa 0,0 l/m 0,0 km/h N-NW 348 0,0 km/h
08.12.2021 04:40 -5,3 C 81 % 1011,7 hPa 0,0 l/m 0,0 km/h N-NW 348 0,0 km/h
08.12.2021 04:35 -5,3 C 81 % 1011,7 hPa 0,0 l/m 0,0 km/h N-NW 348 0,0 km/h
08.12.2021 04:29 -5,2 C 81 % 1011,8 hPa 0,0 l/m 0,0 km/h N-NW 348 0,0 km/h
08.12.2021 04:25 -5,0 C 81 % 1012,0 hPa 0,0 l/m 0,0 km/h N-NW 348 0,0 km/h
08.12.2021 04:24 -5,0 C 81 % 1012,0 hPa 0,0 l/m 0,0 km/h N-NW 348 0,0 km/h
08.12.2021 04:20 -5,1 C 81 % 1012,0 hPa 0,0 l/m 0,0 km/h N-NW 348 0,0 km/h
08.12.2021 04:15 -5,0 C 81 % 1012,1 hPa 0,0 l/m 0,0 km/h N-NW 348 0,0 km/h
08.12.2021 04:14 -5,0 C 81 % 1012,1 hPa 0,0 l/m 0,0 km/h N-NW 348 0,0 km/h
08.12.2021 04:10 -5,1 C 81 % 1012,2 hPa 0,0 l/m 0,0 km/h N-NW 333 0,0 km/h
08.12.2021 04:05 -4,9 C 81 % 1012,4 hPa 0,0 l/m 0,0 km/h N 352 0,0 km/h
08.12.2021 04:00 -4,8 C 81 % 1012,4 hPa 0,0 l/m 0,0 km/h N 352 0,0 km/h
08.12.2021 03:55 -4,7 C 81 % 1012,5 hPa 0,0 l/m 0,0 km/h N 353 0,0 km/h
08.12.2021 03:50 -4,4 C 80 % 1012,5 hPa 0,0 l/m 0,0 km/h N 352 0,0 km/h
08.12.2021 03:49 -4,4 C 80 % 1012,5 hPa 0,0 l/m 0,0 km/h N 352 1,6 km/h
08.12.2021 03:45 -4,7 C 80 % 1012,5 hPa 0,0 l/m 0,0 km/h N-NW 342 0,0 km/h
08.12.2021 03:44 -4,7 C 80 % 1012,5 hPa 0,0 l/m 0,0 km/h N-NW 342 0,0 km/h
08.12.2021 03:40 -4,8 C 80 % 1012,6 hPa 0,0 l/m 0,0 km/h N 352 0,0 km/h
08.12.2021 03:35 -4,7 C 80 % 1012,6 hPa 0,0 l/m 0,0 km/h N 352 0,0 km/h
08.12.2021 03:30 -4,9 C 81 % 1012,7 hPa 0,0 l/m 0,0 km/h N 352 0,0 km/h
08.12.2021 03:29 -4,9 C 81 % 1012,7 hPa 0,0 l/m 0,0 km/h N 352 0,0 km/h
08.12.2021 03:25 -4,8 C 80 % 1012,7 hPa 0,0 l/m 0,0 km/h N 352 0,0 km/h
08.12.2021 03:20 -5,1 C 81 % 1012,7 hPa 0,0 l/m 0,0 km/h N 352 0,0 km/h
08.12.2021 03:15 -4,9 C 81 % 1012,8 hPa 0,0 l/m 0,0 km/h N 352 0,0 km/h
08.12.2021 03:14 -4,9 C 81 % 1012,8 hPa 0,0 l/m 0,0 km/h N 352 0,0 km/h
08.12.2021 03:10 -4,7 C 81 % 1012,7 hPa 0,0 l/m 0,0 km/h N 352 0,0 km/h
08.12.2021 03:09 -4,7 C 81 % 1012,7 hPa 0,0 l/m 0,0 km/h N 352 0,0 km/h
08.12.2021 03:05 -4,7 C 81 % 1012,7 hPa 0,0 l/m 0,0 km/h N 352 0,0 km/h
08.12.2021 03:00 -4,6 C 81 % 1012,8 hPa 0,0 l/m 0,0 km/h N 352 0,0 km/h
08.12.2021 02:55 -4,3 C 81 % 1012,7 hPa 0,0 l/m 0,0 km/h N 352 0,0 km/h
08.12.2021 02:54 -4,3 C 81 % 1012,7 hPa 0,0 l/m 0,0 km/h N 352 0,0 km/h
08.12.2021 02:50 -4,3 C 80 % 1012,8 hPa 0,0 l/m 0,0 km/h N 352 0,0 km/h
08.12.2021 02:45 -4,3 C 81 % 1013,0 hPa 0,0 l/m 0,0 km/h N 351 0,0 km/h
08.12.2021 02:40 -4,3 C 80 % 1013,1 hPa 0,0 l/m 0,0 km/h N-NW 348 0,0 km/h
08.12.2021 02:39 -4,3 C 80 % 1013,1 hPa 0,0 l/m 0,0 km/h N-NW 348 0,0 km/h
08.12.2021 02:34 -4,5 C 81 % 1013,1 hPa 0,0 l/m 0,0 km/h N-NW 348 0,0 km/h
08.12.2021 02:30 -4,6 C 81 % 1013,2 hPa 0,0 l/m 0,0 km/h N-NW 348 0,0 km/h
08.12.2021 02:29 -4,6 C 81 % 1013,2 hPa 0,0 l/m 0,0 km/h N-NW 348 0,0 km/h
08.12.2021 02:25 -4,8 C 81 % 1013,3 hPa 0,0 l/m 0,0 km/h N-NW 348 0,0 km/h
08.12.2021 02:20 -4,8 C 82 % 1013,4 hPa 0,0 l/m 0,0 km/h N-NW 348 0,0 km/h
08.12.2021 02:14 -4,6 C 82 % 1013,5 hPa 0,0 l/m 0,0 km/h N-NW 348 0,0 km/h
08.12.2021 02:10 -4,6 C 82 % 1013,5 hPa 0,0 l/m 0,0 km/h N-NW 348 0,0 km/h
08.12.2021 02:05 -4,6 C 82 % 1013,5 hPa 0,0 l/m 0,0 km/h N-NW 348 0,0 km/h
08.12.2021 02:00 -4,5 C 82 % 1013,6 hPa 0,0 l/m 0,0 km/h N-NW 348 0,0 km/h
08.12.2021 01:55 -4,3 C 82 % 1013,5 hPa 0,0 l/m 0,0 km/h N-NW 348 0,0 km/h
08.12.2021 01:50 -4,2 C 82 % 1013,4 hPa 0,0 l/m 0,0 km/h N-NW 348 0,0 km/h
08.12.2021 01:45 -4,0 C 81 % 1013,4 hPa 0,0 l/m 0,0 km/h N-NW 348 0,0 km/h
08.12.2021 01:44 -3,9 C 81 % 1013,4 hPa 0,0 l/m 0,0 km/h N-NW 348 0,0 km/h
08.12.2021 01:40 -4,1 C 81 % 1013,5 hPa 0,0 l/m 0,0 km/h N-NW 348 0,0 km/h
08.12.2021 01:39 -4,1 C 82 % 1013,5 hPa 0,0 l/m 0,0 km/h N-NW 348 0,0 km/h
08.12.2021 01:35 -4,3 C 82 % 1013,5 hPa 0,0 l/m 0,0 km/h N-NW 348 0,0 km/h
08.12.2021 01:30 -4,2 C 82 % 1013,5 hPa 0,0 l/m 0,0 km/h N-NW 347 0,0 km/h
08.12.2021 01:25 -4,2 C 82 % 1013,6 hPa 0,0 l/m 0,0 km/h N-NW 347 0,0 km/h
08.12.2021 01:20 -3,9 C 82 % 1013,6 hPa 0,0 l/m 0,0 km/h N-NW 347 0,0 km/h
08.12.2021 01:15 -3,7 C 82 % 1013,6 hPa 0,0 l/m 0,0 km/h N-NW 347 0,0 km/h
08.12.2021 01:14 -3,7 C 82 % 1013,6 hPa 0,0 l/m 0,0 km/h N-NW 347 0,0 km/h
08.12.2021 01:10 -3,5 C 81 % 1013,5 hPa 0,0 l/m 0,0 km/h N-NW 347 0,0 km/h
08.12.2021 01:09 -3,5 C 81 % 1013,5 hPa 0,0 l/m 0,0 km/h N-NW 347 0,0 km/h
08.12.2021 01:05 -3,7 C 81 % 1013,6 hPa 0,0 l/m 0,0 km/h N-NW 347 0,0 km/h
08.12.2021 01:00 -3,9 C 82 % 1013,6 hPa 0,0 l/m 0,0 km/h N-NW 339 0,0 km/h
08.12.2021 00:55 -4,1 C 82 % 1013,7 hPa 0,0 l/m 0,0 km/h N 354 0,0 km/h
08.12.2021 00:54 -4,2 C 82 % 1013,7 hPa 0,0 l/m 0,0 km/h N 353 0,0 km/h
08.12.2021 00:50 -4,3 C 83 % 1013,8 hPa 0,0 l/m 0,0 km/h N 356 0,0 km/h
08.12.2021 00:49 -4,3 C 83 % 1013,8 hPa 0,0 l/m 0,0 km/h N 356 0,0 km/h
08.12.2021 00:45 -4,1 C 83 % 1013,9 hPa 0,0 l/m 0,0 km/h N 356 0,0 km/h
08.12.2021 00:40 -3,8 C 82 % 1013,9 hPa 0,0 l/m 0,0 km/h N 356 0,0 km/h
08.12.2021 00:39 -3,8 C 82 % 1013,9 hPa 0,0 l/m 0,0 km/h N 356 0,0 km/h
08.12.2021 00:35 -3,8 C 83 % 1013,9 hPa 0,0 l/m 0,0 km/h N 356 0,0 km/h
08.12.2021 00:33 -3,8 C 83 % 1013,9 hPa 0,0 l/m 0,0 km/h N 356 0,0 km/h
08.12.2021 00:30 -3,8 C 82 % 1013,9 hPa 0,0 l/m 0,0 km/h N 356 0,0 km/h
08.12.2021 00:25 -3,7 C 82 % 1014,0 hPa 0,0 l/m 0,0 km/h N 356 0,0 km/h
08.12.2021 00:24 -3,7 C 82 % 1014,0 hPa 0,0 l/m 0,0 km/h N 356 0,0 km/h
08.12.2021 00:20 -3,9 C 83 % 1014,0 hPa 0,0 l/m 0,0 km/h N 356 0,0 km/h
08.12.2021 00:15 -3,9 C 83 % 1014,0 hPa 0,0 l/m 0,0 km/h N 360 0,0 km/h
08.12.2021 00:10 -3,7 C 83 % 1014,2 hPa 0,0 l/m 0,0 km/h N 358 1,6 km/h
08.12.2021 00:05 -3,4 C 83 % 1014,2 hPa 0,0 l/m 0,0 km/h N 350 0,0 km/h
08.12.2021 00:04 -3,4 C 83 % 1014,2 hPa 0,0 l/m 0,0 km/h N 350 0,0 km/h
08.12.2021 00:00 -3,5 C 83 % 1014,3 hPa 0,0 l/m 0,0 km/h N 350 0,0 km/h
07.12.2021 23:55 -3,4 C 83 % 1014,4 hPa 0,0 l/m 0,0 km/h N 350 0,0 km/h
07.12.2021 23:50 -3,1 C 83 % 1014,4 hPa 0,0 l/m 0,0 km/h N 349 0,0 km/h
07.12.2021 23:45 -3,1 C 83 % 1014,4 hPa 0,0 l/m 0,0 km/h N 349 0,0 km/h
07.12.2021 23:40 -3,4 C 83 % 1014,5 hPa 0,0 l/m 0,0 km/h N 349 0,0 km/h
07.12.2021 23:39 -3,4 C 83 % 1014,5 hPa 0,0 l/m 0,0 km/h N 349 0,0 km/h
07.12.2021 23:35 -3,4 C 83 % 1014,6 hPa 0,0 l/m 0,0 km/h N 349 0,0 km/h
_ Min-Zeit 08:00 12:50 05:30 - 06:00 - - 06:00
Minimum _ -6,3 C 66 % 1011,4 hPa - 0,0 km/h - - 0,0 km/h
_ Max-Zeit 13:20 18:15 19:19 11:19 16:24 - - 16:24
Maximum _ 3,5 C 83 % 1015,7 hPa 0,2 l/m 3,3 km/h
N
- - 12,9 km/h
N
Durchschnitt _ -2,3 C 79 % 1014,0 hPa #0,4 l/m 0,0 km/h N - 0,1 km/h